FW1302 Weather Reports


time (UTC)temp
C
wind
direction
speed
KPH
gust
KPH
rain 1hr
cm
rain 24hr
cm
rain mn
cm
humidity
%
barometer
mb
20260903122829 12 112 1.6 3.2 0.00 0.03 0.00 96 1021.3
20260903121830 12 112 1.6 3.2 0.00 0.03 0.00 95 1021.2
20260903120828 12 112 1.6 1.6 0.00 0.03 0.00 95 1021.2
20260903115828 12 112 0.0 0.0 0.00 0.03 0.00 95 1021.2
20260903114829 12 112 1.6 3.2 0.00 0.03 0.00 95 1021.3
20260903113829 12 112 3.2 3.2 0.00 0.03 0.00 95 1021.2
20260903110830 12 112 0.0 0.0 0.00 0.03 0.00 94 1021.3
20260903110729 12 112 0.0 0.0 0.00 0.03 0.00 95 1021.3
20260903105731 12 135 0.0 0.0 0.00 0.03 0.00 94 1021.1
20260903104828 12 135 0.0 0.0 0.00 0.03 0.00 94 1021.1
20260903103829 12 135 0.0 0.0 0.00 0.03 0.00 94 1021.2
20260903102830 12 135 6.4 8.0 0.00 0.03 0.00 94 1020.9
20260903095928 12 135 0.0 1.6 0.00 0.03 0.00 93 1020.8
20260903094930 12 135 3.2 4.8 0.00 0.03 0.00 94 1020.7
20260903093929 12 135 4.8 4.8 0.00 0.03 0.00 92 1020.8
20260903093830 12 135 4.8 4.8 0.00 0.03 0.00 93 1020.9
20260903092929 12 180 0.0 0.0 0.00 0.03 0.00 92 1020.9
20260903092831 12 180 0.0 0.0 0.00 0.03 0.00 92 1020.8
20260903085931 13 180 0.0 3.2 0.00 0.03 0.00 89 1020.8
20260903084928 13 223 3.2 6.4 0.00 0.03 0.00 89 1021.0
20260903082929 13 185 0.0 6.4 0.00 0.03 0.00 88 1020.6
20260903081029 13 225 9.7 16.1 0.00 0.03 0.00 90 1020.5
20260903080029 13 225 12.9 22.5 0.00 0.03 0.00 92 1020.6
20260903075030 13 219 6.4 11.3 0.00 0.03 0.00 93 1020.6
20260903074129 13 226 12.9 17.7 0.00 0.03 0.00 93 1020.7
20260903073129 12 202 4.8 6.4 0.00 0.03 0.00 94 1020.6
20260903072130 12 180 0.0 0.0 0.00 0.03 0.00 94 1020.3
20260903071128 12 202 3.2 3.2 0.00 0.03 0.00 94 1020.3
20260903070129 12 360 0.0 0.0 0.00 0.03 0.00 94 1020.3
20260903064212 12 180 0.0 0.0 0.00 0.03 0.03 95 1020.4
20260903063214 12 180 0.0 0.0 0.00 0.03 0.03 94 1020.3
20260903062211 12 157 0.0 1.6 0.00 0.03 0.03 93 1020.3
20260903061211 12 157 0.0 0.0 0.00 0.03 0.03 93 1020.3
20260903060211 13 157 1.6 3.2 0.00 0.03 0.03 93 1020.5
20260903055213 13 157 4.8 6.4 0.00 0.03 0.03 92 1020.3
20260903054312 13 180 0.0 1.6 0.00 0.03 0.03 92 1020.3
20260903052314 13 246 3.2 6.4 0.00 0.03 0.03 91 1020.3
20260903051411 13 225 4.8 6.4 0.00 0.03 0.03 91 1020.1
20260903051312 13 225 3.2 6.4 0.00 0.03 0.03 91 1020.1
20260903050313 13 224 3.2 4.8 0.00 0.03 0.03 93 1020.1
20260903045412 14 225 3.2 4.8 0.00 0.03 0.03 92 1019.9
20260903044511 14 232 8.0 11.3 0.00 0.03 0.03 92 1019.9
20260903043512 14 225 8.0 11.3 0.00 0.03 0.03 92 1019.9
20260903042511 14 228 12.9 16.1 0.00 0.03 0.03 93 1019.8
20260903041514 14 221 8.0 11.3 0.00 0.03 0.03 93 1019.5
20260903040513 14 225 8.0 11.3 0.00 0.03 0.03 93 1019.5
20260903035512 14 225 9.7 11.3 0.00 0.03 0.03 93 1019.4
20260903034511 14 225 8.0 11.3 0.00 0.03 0.03 93 1019.2
20260903032513 14 223 6.4 9.7 0.00 0.03 0.03 93 1019.2
20260903032411 14 225 6.4 9.7 0.00 0.03 0.03 93 1019.2
20260903031413 14 225 6.4 6.4 0.00 0.03 0.03 93 1019.3
20260903030512 14 225 6.4 9.7 0.00 0.03 0.03 93 1019.2
20260903025513 14 225 9.7 11.3 0.00 0.03 0.03 94 1019.2
20260903024611 14 225 6.4 8.0 0.00 0.03 0.03 93 1019.1
20260903023613 14 207 11.3 17.7 0.00 0.03 0.03 92 1019.1
20260903022614 15 224 11.3 16.1 0.00 0.03 0.03 93 1019.1
20260903021711 15 223 11.3 17.7 0.03 0.03 0.03 93 1018.9
20260903021613 15 225 12.9 19.3 0.03 0.03 0.03 92 1018.9
20260903020614 15 225 6.4 11.3 0.03 0.03 0.03 93 1019.0
20260903015613 15 225 16.1 20.9 0.03 0.03 0.03 92 1018.8
20260903014613 15 228 12.9 16.1 0.03 0.03 0.03 93 1018.5
20260903013612 15 225 11.3 16.1 0.03 0.03 0.03 94 1018.5
20260903012712 15 231 17.7 22.5 0.03 0.03 0.03 94 1018.5
20260903011710 15 226 14.5 20.9 0.00 0.00 0.00 93 1018.5
20260903010712 15 215 6.4 9.7 0.00 0.00 0.00 93 1018.4
20260903005712 15 200 3.2 6.4 0.00 0.00 0.00 94 1018.1
20260903004712 15 180 0.0 0.0 0.00 0.00 0.00 92 1018.2
20260903003711 15 197 0.0 0.0 0.00 0.00 0.00 93 1018.1
20260903002713 15 202 0.0 0.0 0.00 0.00 0.00 92 1018.3
20260903001712 15 202 0.0 0.0 0.00 0.00 0.00 92 1018.2
20260903000713 15 202 0.0 0.0 0.00 0.00 0.00 93 1018.1
20260902235713 15 202 0.0 0.0 0.00 0.00 0.00 92 1018.2
20260902234712 15 180 0.0 0.0 0.00 0.00 0.00 91 1018.0
20260902233712 15 180 0.0 0.0 0.00 0.00 0.00 92 1018.3
20260902230714 15 180 0.0 0.0 0.00 0.00 0.00 92 1018.0
20260902224713 15 202 0.0 0.0 0.00 0.00 0.00 91 1018.3
20260902223811 15 202 0.0 0.0 0.00 0.00 0.00 90 1018.0
20260902221813 15 202 0.0 0.0 0.00 0.00 0.00 92 1018.2
20260902215914 15 204 0.0 4.8 0.00 0.00 0.00 91 1018.4
20260902213911 15 45 1.6 3.2 0.00 0.00 0.00 90 1018.2
20260902212913 15 45 0.0 0.0 0.00 0.00 0.00 89 1018.0
20260902211011 15 45 0.0 0.0 0.00 0.00 0.00 89 1017.8
20260902210913 15 45 0.0 0.0 0.00 0.00 0.00 89 1017.8
20260902210012 15 45 0.0 0.0 0.00 0.00 0.00 90 1017.8
20260902204013 15 45 4.8 4.8 0.00 0.00 0.00 89 1017.7
20260902203014 15 49 6.4 6.4 0.00 0.00 0.00 89 1017.7
20260902202112 15 135 0.0 0.0 0.00 0.00 0.00 88 1017.9
20260902201112 15 135 0.0 0.0 0.00 0.00 0.00 88 1018.0
20260902200112 15 135 1.6 4.8 0.00 0.00 0.00 87 1018.1
20260902195112 16 184 0.0 6.4 0.00 0.00 0.00 86 1018.4
20260902194113 16 207 3.2 8.0 0.00 0.00 0.00 85 1018.5
20260902193112 16 225 9.7 12.9 0.00 0.00 0.00 83 1018.5
20260902192211 16 220 9.7 14.5 0.00 0.00 0.00 82 1018.4
20260902191213 16 225 11.3 12.9 0.00 0.00 0.00 80 1018.4
20260902190214 17 231 6.4 9.7 0.00 0.00 0.00 78 1018.2
20260902185212 17 225 6.4 9.7 0.00 0.00 0.00 76 1018.2
20260902184214 17 270 9.7 11.3 0.00 0.00 0.00 73 1017.9
20260902183210 17 247 8.0 11.3 0.00 0.00 0.00 71 1018.0
20260902182212 18 270 6.4 8.0 0.00 0.00 0.00 66 1018.0
20260902175311 17 247 1.6 3.2 0.00 0.00 0.00 66 1018.0
20260902175211 17 247 1.6 3.2 0.00 0.00 0.00 66 1018.0
20260902174213 18 292 4.8 4.8 0.00 0.00 0.00 66 1017.9
20260902172213 17 22 3.2 4.8 0.00 0.00 0.00 67 1017.9
20260902171212 17 22 4.8 6.4 0.00 0.00 0.00 68 1017.9
20260902171110 17 22 3.2 4.8 0.00 0.00 0.00 68 1017.9
20260902170112 17 22 6.4 8.0 0.00 0.00 0.00 68 1018.0
20260902164211 17 22 6.4 8.0 0.00 0.00 0.00 70 1018.1
20260902163213 17 45 6.4 8.0 0.00 0.00 0.00 70 1018.2
20260902162213 17 45 8.0 9.7 0.00 0.00 0.00 70 1018.3
20260902160310 17 45 9.7 11.3 0.00 0.00 0.00 68 1018.5
20260902155313 17 45 8.0 9.7 0.00 0.00 0.00 68 1018.7
20260902154311 17 45 4.8 8.0 0.00 0.00 0.00 71 1018.9
20260902152313 16 45 3.2 6.4 0.00 0.00 0.00 74 1019.2
20260902150412 16 112 0.0 0.0 0.00 0.00 0.00 76 1019.3
20260902145415 16 112 0.0 0.0 0.00 0.00 0.00 76 1019.4
20260902144511 16 135 0.0 0.0 0.00 0.00 0.00 77 1019.4
20260902143512 16 135 0.0 0.0 0.00 0.00 0.00 76 1019.6
20260902143413 16 135 0.0 0.0 0.00 0.00 0.00 76 1019.5
20260902142512 16 135 0.0 0.0 0.00 0.00 0.00 74 1019.9
20260902140612 15 135 0.0 0.0 0.00 0.00 0.00 77 1020.1
20260902140514 15 135 0.0 0.0 0.00 0.00 0.00 77 1020.1
20260902135611 15 135 0.0 0.0 0.00 0.00 0.00 76 1020.1
20260902134612 15 135 0.0 1.6 0.00 0.00 0.00 78 1020.3
20260902133611 15 135 3.2 6.4 0.00 0.00 0.00 79 1020.3
20260902132711 15 180 0.0 0.0 0.00 0.00 0.00 79 1020.4
20260902131711 15 247 0.0 0.0 0.00 0.00 0.00 78 1020.3
20260902125712 16 241 12.9 17.7 0.00 0.00 0.00 75 1020.5
20260902124713 16 243 14.5 19.3 0.00 0.00 0.00 71 1020.5